Year,Month,Day,Hour,Minute,Value (Times are PST for temperature in C)
2007,04,28,00,00,9.20
2007,04,28,00,01,9.20
2007,04,28,00,02,9.20
2007,04,28,00,03,9.20
2007,04,28,00,04,9.20
2007,04,28,00,05,9.20
2007,04,28,00,06,9.20
2007,04,28,00,07,9.10
2007,04,28,00,08,9.10
2007,04,28,00,09,9.10
2007,04,28,00,10,9.10
2007,04,28,00,11,9.10
2007,04,28,00,12,9.10
2007,04,28,00,13,9.10
2007,04,28,00,14,9.00
2007,04,28,00,15,9.00
2007,04,28,00,16,9.00
2007,04,28,00,17,9.00
2007,04,28,00,18,9.00
2007,04,28,00,19,9.00
2007,04,28,00,20,8.90
2007,04,28,00,21,9.00
2007,04,28,00,22,9.00
2007,04,28,00,23,8.90
2007,04,28,00,24,8.90
2007,04,28,00,25,8.90
2007,04,28,00,26,8.90
2007,04,28,00,27,8.90
2007,04,28,00,28,8.90
2007,04,28,00,29,8.90
2007,04,28,00,30,8.90
2007,04,28,00,31,8.80
2007,04,28,00,32,8.80
2007,04,28,00,33,8.80
2007,04,28,00,34,8.80
2007,04,28,00,35,8.80
2007,04,28,00,36,8.70
2007,04,28,00,37,8.70
2007,04,28,00,38,8.70
2007,04,28,00,39,8.70
2007,04,28,00,40,8.60
2007,04,28,00,41,8.60
2007,04,28,00,42,8.60
2007,04,28,00,43,8.60
2007,04,28,00,44,8.60
2007,04,28,00,45,8.60
2007,04,28,00,46,8.50
2007,04,28,00,47,8.50
2007,04,28,00,48,8.50
2007,04,28,00,49,8.50
2007,04,28,00,50,8.40
2007,04,28,00,51,8.40
2007,04,28,00,52,8.40
2007,04,28,00,53,8.40
2007,04,28,00,54,8.40
2007,04,28,00,55,8.40
2007,04,28,00,56,8.30
2007,04,28,00,57,8.30
2007,04,28,00,58,8.30
2007,04,28,00,59,8.30
2007,04,28,01,00,8.30
2007,04,28,01,01,8.30
2007,04,28,01,02,8.30
2007,04,28,01,03,8.30
2007,04,28,01,04,8.30
2007,04,28,01,05,8.30
2007,04,28,01,06,8.30
2007,04,28,01,07,8.30
2007,04,28,01,08,8.30
2007,04,28,01,09,8.30
2007,04,28,01,10,8.30
2007,04,28,01,11,8.30
2007,04,28,01,12,8.30
2007,04,28,01,13,8.30
2007,04,28,01,14,8.30
2007,04,28,01,15,8.20
2007,04,28,01,16,8.20
2007,04,28,01,17,8.20
2007,04,28,01,18,8.20
2007,04,28,01,19,8.20
2007,04,28,01,20,8.20
2007,04,28,01,21,8.20
2007,04,28,01,22,8.30
2007,04,28,01,23,8.30
2007,04,28,01,24,8.30
2007,04,28,01,25,8.30
2007,04,28,01,26,8.30
2007,04,28,01,27,8.30
2007,04,28,01,28,8.30
2007,04,28,01,29,8.30
2007,04,28,01,30,8.30
2007,04,28,01,31,8.30
2007,04,28,01,32,8.30
2007,04,28,01,33,8.30
2007,04,28,01,34,8.30
2007,04,28,01,35,8.30
2007,04,28,01,36,8.30
2007,04,28,01,37,8.30
2007,04,28,01,38,8.30
2007,04,28,01,39,8.30
2007,04,28,01,40,8.30
2007,04,28,01,41,8.40
2007,04,28,01,42,8.40
2007,04,28,01,43,8.40
2007,04,28,01,44,8.40
2007,04,28,01,45,8.40
2007,04,28,01,46,8.30
2007,04,28,01,47,8.30
2007,04,28,01,48,8.30
2007,04,28,01,49,8.30
2007,04,28,01,50,8.30
2007,04,28,01,51,8.30
2007,04,28,01,52,8.30
2007,04,28,01,53,8.30
2007,04,28,01,54,8.30
2007,04,28,01,55,8.30
2007,04,28,01,56,8.30
2007,04,28,01,57,8.30
2007,04,28,01,58,8.30
2007,04,28,01,59,8.30
2007,04,28,02,00,8.30
2007,04,28,02,01,8.30
2007,04,28,02,02,8.30
2007,04,28,02,03,8.30
2007,04,28,02,04,8.30
2007,04,28,02,05,8.30
2007,04,28,02,06,8.30
2007,04,28,02,07,8.30
2007,04,28,02,08,8.30
2007,04,28,02,09,8.20
2007,04,28,02,10,8.20
2007,04,28,02,11,8.20
2007,04,28,02,12,8.20
2007,04,28,02,13,8.20
2007,04,28,02,14,8.20
2007,04,28,02,15,8.20
2007,04,28,02,16,8.20
2007,04,28,02,17,8.20
2007,04,28,02,18,8.20
2007,04,28,02,19,8.10
2007,04,28,02,20,8.10
2007,04,28,02,21,8.10
2007,04,28,02,22,8.10
2007,04,28,02,23,8.00
2007,04,28,02,24,8.00
2007,04,28,02,25,8.00
2007,04,28,02,26,7.90
2007,04,28,02,27,7.90
2007,04,28,02,28,7.90
2007,04,28,02,29,7.90
2007,04,28,02,30,7.80
2007,04,28,02,31,7.80
2007,04,28,02,32,7.80
2007,04,28,02,33,7.80
2007,04,28,02,34,7.80
2007,04,28,02,35,7.80
2007,04,28,02,36,7.80
2007,04,28,02,37,7.80
2007,04,28,02,38,7.70
2007,04,28,02,39,7.70
2007,04,28,02,40,7.80
2007,04,28,02,41,7.70
2007,04,28,02,42,7.70
2007,04,28,02,43,7.70
2007,04,28,02,44,7.70
2007,04,28,02,45,7.70
2007,04,28,02,46,7.60
2007,04,28,02,47,7.60
2007,04,28,02,48,7.50
2007,04,28,02,49,7.50
2007,04,28,02,50,7.50
2007,04,28,02,51,7.40
2007,04,28,02,52,7.40
2007,04,28,02,53,7.30
2007,04,28,02,54,7.30
2007,04,28,02,55,7.30
2007,04,28,02,56,7.30
2007,04,28,02,57,7.30
2007,04,28,02,58,7.30
2007,04,28,02,59,7.30
2007,04,28,03,00,7.20
2007,04,28,03,01,7.20
2007,04,28,03,02,7.20
2007,04,28,03,03,7.20
2007,04,28,03,04,7.10
2007,04,28,03,05,7.10
2007,04,28,03,06,7.00
2007,04,28,03,07,7.00
2007,04,28,03,08,7.00
2007,04,28,03,09,7.00
2007,04,28,03,10,7.00
2007,04,28,03,11,7.00
2007,04,28,03,12,7.00
2007,04,28,03,13,6.90
2007,04,28,03,14,6.90
2007,04,28,03,15,7.00
2007,04,28,03,16,7.00
2007,04,28,03,17,7.00
2007,04,28,03,18,7.00
2007,04,28,03,19,7.00
2007,04,28,03,20,7.00
2007,04,28,03,21,7.00
2007,04,28,03,22,7.00
2007,04,28,03,23,7.00
2007,04,28,03,24,6.90
2007,04,28,03,25,6.90
2007,04,28,03,26,6.90
2007,04,28,03,27,6.90
2007,04,28,03,28,6.80
2007,04,28,03,29,6.80
2007,04,28,03,30,6.70
2007,04,28,03,31,6.70
2007,04,28,03,32,6.60
2007,04,28,03,33,6.60
2007,04,28,03,34,6.50
2007,04,28,03,35,6.50
2007,04,28,03,36,6.50
2007,04,28,03,37,6.50
2007,04,28,03,38,6.40
2007,04,28,03,39,6.40
2007,04,28,03,40,6.40
2007,04,28,03,41,6.40
2007,04,28,03,42,6.30
2007,04,28,03,43,6.30
2007,04,28,03,44,6.30
2007,04,28,03,45,6.30
2007,04,28,03,46,6.30
2007,04,28,03,47,6.30
2007,04,28,03,48,6.30
2007,04,28,03,49,6.40
2007,04,28,03,50,6.40
2007,04,28,03,51,6.40
2007,04,28,03,52,6.40
2007,04,28,03,53,6.40
2007,04,28,03,54,6.40
2007,04,28,03,55,6.40
2007,04,28,03,56,6.30
2007,04,28,03,57,6.30
2007,04,28,03,58,6.30
2007,04,28,03,59,6.30
2007,04,28,04,00,6.20
2007,04,28,04,01,6.20
2007,04,28,04,02,6.20
2007,04,28,04,03,6.20
2007,04,28,04,04,6.20
2007,04,28,04,05,6.10
2007,04,28,04,06,6.10
2007,04,28,04,07,6.10
2007,04,28,04,08,6.10
2007,04,28,04,09,6.10
2007,04,28,04,10,6.10
2007,04,28,04,11,6.10
2007,04,28,04,12,6.10
2007,04,28,04,13,6.10
2007,04,28,04,14,6.10
2007,04,28,04,15,6.10
2007,04,28,04,16,6.10
2007,04,28,04,17,6.10
2007,04,28,04,18,6.10
2007,04,28,04,19,6.00
2007,04,28,04,20,6.00
2007,04,28,04,21,5.90
2007,04,28,04,22,5.90
2007,04,28,04,23,5.80
2007,04,28,04,24,5.80
2007,04,28,04,25,5.80
2007,04,28,04,26,5.70
2007,04,28,04,27,5.70
2007,04,28,04,28,5.60
2007,04,28,04,29,5.60
2007,04,28,04,30,5.60
2007,04,28,04,31,5.60
2007,04,28,04,32,5.50
2007,04,28,04,33,5.50
2007,04,28,04,34,5.40
2007,04,28,04,35,5.40
2007,04,28,04,36,5.40
2007,04,28,04,37,5.30
2007,04,28,04,38,5.30
2007,04,28,04,39,5.30
2007,04,28,04,40,5.30
2007,04,28,04,41,5.20
2007,04,28,04,42,5.20
2007,04,28,04,43,5.10
2007,04,28,04,44,5.10
2007,04,28,04,45,5.10
2007,04,28,04,46,5.10
2007,04,28,04,47,5.10
2007,04,28,04,48,5.10
2007,04,28,04,49,5.10
2007,04,28,04,50,5.00
2007,04,28,04,51,5.00
2007,04,28,04,52,5.00
2007,04,28,04,53,5.00
2007,04,28,04,54,5.00
2007,04,28,04,55,4.90
2007,04,28,04,56,4.90
2007,04,28,04,57,4.90
2007,04,28,04,58,4.80
2007,04,28,04,59,4.80
2007,04,28,05,00,4.70
2007,04,28,05,01,4.70
2007,04,28,05,02,4.70
2007,04,28,05,03,4.70
2007,04,28,05,04,4.70
2007,04,28,05,05,4.60
2007,04,28,05,06,4.60
2007,04,28,05,07,4.60
2007,04,28,05,08,4.60
2007,04,28,05,09,4.60
2007,04,28,05,10,4.60
2007,04,28,05,11,4.60
2007,04,28,05,12,4.60
2007,04,28,05,13,4.60
2007,04,28,05,14,4.60
2007,04,28,05,15,4.60
2007,04,28,05,16,4.60
2007,04,28,05,17,4.50
2007,04,28,05,18,4.50
2007,04,28,05,19,4.50
2007,04,28,05,20,4.50
2007,04,28,05,21,4.50
2007,04,28,05,22,4.50
2007,04,28,05,23,4.60
2007,04,28,05,24,4.60
2007,04,28,05,25,4.60
2007,04,28,05,26,4.60
2007,04,28,05,27,4.60
2007,04,28,05,28,4.60
2007,04,28,05,29,4.60
2007,04,28,05,30,4.60
2007,04,28,05,31,4.60
2007,04,28,05,32,4.60
2007,04,28,05,33,4.50
2007,04,28,05,34,4.50
2007,04,28,05,35,4.40
2007,04,28,05,36,4.40
2007,04,28,05,37,4.40
2007,04,28,05,38,4.40
2007,04,28,05,39,4.30
2007,04,28,05,40,4.30
2007,04,28,05,41,4.30
2007,04,28,05,42,4.30
2007,04,28,05,43,4.30
2007,04,28,05,44,4.30
2007,04,28,05,45,4.30
2007,04,28,05,46,4.40
2007,04,28,05,47,4.40
2007,04,28,05,48,4.40
2007,04,28,05,49,4.40
2007,04,28,05,50,4.40
2007,04,28,05,51,4.40
2007,04,28,05,52,4.40
2007,04,28,05,53,4.40
2007,04,28,05,54,4.40
2007,04,28,05,55,4.40
2007,04,28,05,56,4.40
2007,04,28,05,57,4.30
2007,04,28,05,58,4.30
2007,04,28,05,59,4.30
2007,04,28,06,00,4.30
2007,04,28,06,01,4.20
2007,04,28,06,02,4.20
2007,04,28,06,03,4.20
2007,04,28,06,04,4.20
2007,04,28,06,05,4.20
2007,04,28,06,06,4.20
2007,04,28,06,07,4.10
2007,04,28,06,08,4.10
2007,04,28,06,09,4.10
2007,04,28,06,10,4.10
2007,04,28,06,11,4.10
2007,04,28,06,12,4.10
2007,04,28,06,13,4.10
2007,04,28,06,14,4.10
2007,04,28,06,15,4.10
2007,04,28,06,16,4.10
2007,04,28,06,17,4.10
2007,04,28,06,18,4.10
2007,04,28,06,19,4.10
2007,04,28,06,20,4.10
2007,04,28,06,21,4.10
2007,04,28,06,22,4.10
2007,04,28,06,23,4.10
2007,04,28,06,24,4.10
2007,04,28,06,25,4.10
2007,04,28,06,26,4.10
2007,04,28,06,27,4.10
2007,04,28,06,28,4.10
2007,04,28,06,29,4.10
2007,04,28,06,30,4.10
2007,04,28,06,31,4.10
2007,04,28,06,32,4.10
2007,04,28,06,33,4.20
2007,04,28,06,34,4.20
2007,04,28,06,35,4.20
2007,04,28,06,36,4.20
2007,04,28,06,37,4.20
2007,04,28,06,38,4.10
2007,04,28,06,39,4.10
2007,04,28,06,40,4.10
2007,04,28,06,41,4.10
2007,04,28,06,42,4.10
2007,04,28,06,43,4.10
2007,04,28,06,44,4.10
2007,04,28,06,45,4.10
2007,04,28,06,46,4.10
2007,04,28,06,47,4.10
2007,04,28,06,48,4.10
2007,04,28,06,49,4.10
2007,04,28,06,50,4.10
2007,04,28,06,51,4.10
2007,04,28,06,52,4.10
2007,04,28,06,53,4.10
2007,04,28,06,54,4.10
2007,04,28,06,55,4.10
2007,04,28,06,56,4.10
2007,04,28,06,57,4.10
2007,04,28,06,58,4.20
2007,04,28,06,59,4.20
2007,04,28,07,00,4.30
2007,04,28,07,01,4.30
2007,04,28,07,02,4.30
2007,04,28,07,03,4.30
2007,04,28,07,04,4.30
2007,04,28,07,05,4.40
2007,04,28,07,06,4.40
2007,04,28,07,07,4.40
2007,04,28,07,08,4.40
2007,04,28,07,09,4.40
2007,04,28,07,10,4.40
2007,04,28,07,11,4.40
2007,04,28,07,12,4.40
2007,04,28,07,13,4.40
2007,04,28,07,14,4.50
2007,04,28,07,15,4.50
2007,04,28,07,16,4.50
2007,04,28,07,17,4.60
2007,04,28,07,18,4.60
2007,04,28,07,19,4.70
2007,04,28,07,20,4.70
2007,04,28,07,21,4.80
2007,04,28,07,22,4.80
2007,04,28,07,23,4.90
2007,04,28,07,24,5.00
2007,04,28,07,25,5.10
2007,04,28,07,26,5.20
2007,04,28,07,27,5.30
2007,04,28,07,28,5.40
2007,04,28,07,29,5.40
2007,04,28,07,30,5.40
2007,04,28,07,31,5.40
2007,04,28,07,32,5.40
2007,04,28,07,33,5.40
2007,04,28,07,34,5.40
2007,04,28,07,35,5.40
2007,04,28,07,36,5.40
2007,04,28,07,37,5.40
2007,04,28,07,38,5.40
2007,04,28,07,39,5.40
2007,04,28,07,40,5.40
2007,04,28,07,41,5.50
2007,04,28,07,42,5.50
2007,04,28,07,43,5.50
2007,04,28,07,44,5.60
2007,04,28,07,45,5.60
2007,04,28,07,46,5.60
2007,04,28,07,47,5.60
2007,04,28,07,48,5.70
2007,04,28,07,49,5.70
2007,04,28,07,50,5.70
2007,04,28,07,51,5.80
2007,04,28,07,52,5.90
2007,04,28,07,53,5.90
2007,04,28,07,54,6.00
2007,04,28,07,55,6.00
2007,04,28,07,56,6.10
2007,04,28,07,57,6.10
2007,04,28,07,58,6.20
2007,04,28,07,59,6.20
2007,04,28,08,00,6.20
2007,04,28,08,01,6.20
2007,04,28,08,02,6.20
2007,04,28,08,03,6.30
2007,04,28,08,04,6.30
2007,04,28,08,05,6.30
2007,04,28,08,06,6.40
2007,04,28,08,07,6.40
2007,04,28,08,08,6.50
2007,04,28,08,09,6.60
2007,04,28,08,10,6.60
2007,04,28,08,11,6.70
2007,04,28,08,12,6.70
2007,04,28,08,13,6.80
2007,04,28,08,14,6.80
2007,04,28,08,15,6.90
2007,04,28,08,16,6.90
2007,04,28,08,17,6.90
2007,04,28,08,18,7.00
2007,04,28,08,19,7.10
2007,04,28,08,20,7.10
2007,04,28,08,21,7.20
2007,04,28,08,22,7.20
2007,04,28,08,23,7.30
2007,04,28,08,24,7.40
2007,04,28,08,25,7.50
2007,04,28,08,26,7.60
2007,04,28,08,27,7.70
2007,04,28,08,28,7.80
2007,04,28,08,29,7.90
2007,04,28,08,30,8.00
2007,04,28,08,31,8.10
2007,04,28,08,32,8.20
2007,04,28,08,33,8.30
2007,04,28,08,34,8.50
2007,04,28,08,35,8.60
2007,04,28,08,36,8.60
2007,04,28,08,37,8.70
2007,04,28,08,38,8.80
2007,04,28,08,39,8.80
2007,04,28,08,40,8.90
2007,04,28,08,41,9.00
2007,04,28,08,42,9.10
2007,04,28,08,43,9.20
2007,04,28,08,44,9.30
2007,04,28,08,45,9.40
2007,04,28,08,46,9.50
2007,04,28,08,47,9.60
2007,04,28,08,48,9.70
2007,04,28,08,49,9.70
2007,04,28,08,50,9.70
2007,04,28,08,51,9.80
2007,04,28,08,52,9.80
2007,04,28,08,53,9.80
2007,04,28,08,54,9.80
2007,04,28,08,55,9.90
2007,04,28,08,56,9.90
2007,04,28,08,57,10.00
2007,04,28,08,58,10.00
2007,04,28,08,59,10.00
2007,04,28,09,00,10.10
2007,04,28,09,01,10.10
2007,04,28,09,02,10.10
2007,04,28,09,03,10.20
2007,04,28,09,04,10.30
2007,04,28,09,05,10.30
2007,04,28,09,06,10.30
2007,04,28,09,07,10.40
2007,04,28,09,08,10.40
2007,04,28,09,09,10.50
2007,04,28,09,10,10.60
2007,04,28,09,11,10.60
2007,04,28,09,12,10.70
2007,04,28,09,13,10.70
2007,04,28,09,14,10.80
2007,04,28,09,15,10.80
2007,04,28,09,16,10.80
2007,04,28,09,17,10.90
2007,04,28,09,18,10.80
2007,04,28,09,19,10.80
2007,04,28,09,20,10.70
2007,04,28,09,21,10.60
2007,04,28,09,22,10.50
2007,04,28,09,23,10.50
2007,04,28,09,24,10.40
2007,04,28,09,25,10.40
2007,04,28,09,26,10.40
2007,04,28,09,27,10.40
2007,04,28,09,28,10.40
2007,04,28,09,29,10.40
2007,04,28,09,30,10.40
2007,04,28,09,31,10.40
2007,04,28,09,32,10.50
2007,04,28,09,33,10.50
2007,04,28,09,34,10.50
2007,04,28,09,35,10.60
2007,04,28,09,36,10.60
2007,04,28,09,37,10.70
2007,04,28,09,38,10.70
2007,04,28,09,39,10.80
2007,04,28,09,40,10.90
2007,04,28,09,41,11.00
2007,04,28,09,42,11.10
2007,04,28,09,43,11.10
2007,04,28,09,44,11.20
2007,04,28,09,45,11.20
2007,04,28,09,46,11.10
2007,04,28,09,47,11.10
2007,04,28,09,48,11.00
2007,04,28,09,49,11.00
2007,04,28,09,50,11.10
2007,04,28,09,51,11.20
2007,04,28,09,52,11.30
2007,04,28,09,53,11.30
2007,04,28,09,54,11.30
2007,04,28,09,55,11.30
2007,04,28,09,56,11.40
2007,04,28,09,57,11.40
2007,04,28,09,58,11.50
2007,04,28,09,59,11.50
2007,04,28,10,00,11.60
2007,04,28,10,01,11.60
2007,04,28,10,02,11.50
2007,04,28,10,03,11.50
2007,04,28,10,04,11.50
2007,04,28,10,05,11.50
2007,04,28,10,06,11.50
2007,04,28,10,07,11.40
2007,04,28,10,08,11.30
2007,04,28,10,09,11.20
2007,04,28,10,10,11.30
2007,04,28,10,11,11.30
2007,04,28,10,12,11.40
2007,04,28,10,13,11.50
2007,04,28,10,14,11.50
2007,04,28,10,15,11.40
2007,04,28,10,16,11.30
2007,04,28,10,17,11.30
2007,04,28,10,18,11.30
2007,04,28,10,19,11.30
2007,04,28,10,20,11.30
2007,04,28,10,21,11.30
2007,04,28,10,22,11.30
2007,04,28,10,23,11.30
2007,04,28,10,24,11.20
2007,04,28,10,25,11.30
2007,04,28,10,26,11.40
2007,04,28,10,27,11.50
2007,04,28,10,28,11.60
2007,04,28,10,29,11.60
2007,04,28,10,30,11.60
2007,04,28,10,31,11.60
2007,04,28,10,32,11.50
2007,04,28,10,33,11.50
2007,04,28,10,34,11.60
2007,04,28,10,35,11.60
2007,04,28,10,36,11.60
2007,04,28,10,37,11.60
2007,04,28,10,38,11.60
2007,04,28,10,39,11.60
2007,04,28,10,40,11.60
2007,04,28,10,41,11.60
2007,04,28,10,42,11.70
2007,04,28,10,43,11.70
2007,04,28,10,44,11.80
2007,04,28,10,45,11.80
2007,04,28,10,46,11.90
2007,04,28,10,47,11.90
2007,04,28,10,48,12.00
2007,04,28,10,49,12.00
2007,04,28,10,50,12.10
2007,04,28,10,51,12.00
2007,04,28,10,52,12.00
2007,04,28,10,53,12.00
2007,04,28,10,54,12.00
2007,04,28,10,55,12.10
2007,04,28,10,56,12.00
2007,04,28,10,57,11.90
2007,04,28,10,58,11.80
2007,04,28,10,59,11.90
2007,04,28,11,00,11.90
2007,04,28,11,01,11.90
2007,04,28,11,02,11.90
2007,04,28,11,03,11.90
2007,04,28,11,04,11.90
2007,04,28,11,05,11.90
2007,04,28,11,06,12.00
2007,04,28,11,07,12.00
2007,04,28,11,08,11.90
2007,04,28,11,09,11.80
2007,04,28,11,10,11.80
2007,04,28,11,11,11.80
2007,04,28,11,12,11.70
2007,04,28,11,13,11.70
2007,04,28,11,14,11.70
2007,04,28,11,15,11.60
2007,04,28,11,16,11.70
2007,04,28,11,17,11.70
2007,04,28,11,18,11.70
2007,04,28,11,19,11.70
2007,04,28,11,20,11.60
2007,04,28,11,21,11.50
2007,04,28,11,22,11.50
2007,04,28,11,23,11.60
2007,04,28,11,24,11.60
2007,04,28,11,25,11.70
2007,04,28,11,26,11.70
2007,04,28,11,27,11.60
2007,04,28,11,28,11.70
2007,04,28,11,29,11.70
2007,04,28,11,30,11.70
2007,04,28,11,31,11.60
2007,04,28,11,32,11.60
2007,04,28,11,33,11.70
2007,04,28,11,34,11.70
2007,04,28,11,35,11.70
2007,04,28,11,36,11.70
2007,04,28,11,37,11.60
2007,04,28,11,38,11.70
2007,04,28,11,39,11.80
2007,04,28,11,40,11.80
2007,04,28,11,41,11.70
2007,04,28,11,42,11.80
2007,04,28,11,43,11.80
2007,04,28,11,44,11.90
2007,04,28,11,45,12.00
2007,04,28,11,46,12.00
2007,04,28,11,47,12.10
2007,04,28,11,48,12.00
2007,04,28,11,49,11.90
2007,04,28,11,50,11.90
2007,04,28,11,51,11.90
2007,04,28,11,52,11.80
2007,04,28,11,53,11.70
2007,04,28,11,54,11.60
2007,04,28,11,55,11.60
2007,04,28,11,56,11.60
2007,04,28,11,57,11.70
2007,04,28,11,58,11.70
2007,04,28,11,59,11.70
2007,04,28,12,00,11.70
2007,04,28,12,01,11.60
2007,04,28,12,02,11.60
2007,04,28,12,03,11.50
2007,04,28,12,04,11.40
2007,04,28,12,05,11.30
2007,04,28,12,06,11.40
2007,04,28,12,07,11.50
2007,04,28,12,08,11.50
2007,04,28,12,09,11.60
2007,04,28,12,10,11.50
2007,04,28,12,11,11.50
2007,04,28,12,12,11.50
2007,04,28,12,13,11.50
2007,04,28,12,14,11.60
2007,04,28,12,15,11.60
2007,04,28,12,16,11.60
2007,04,28,12,17,11.60
2007,04,28,12,18,11.70
2007,04,28,12,19,11.70
2007,04,28,12,20,11.70
2007,04,28,12,21,11.70
2007,04,28,12,22,11.70
2007,04,28,12,23,11.90
2007,04,28,12,24,12.00
2007,04,28,12,25,12.10
2007,04,28,12,26,12.30
2007,04,28,12,27,12.50
2007,04,28,12,28,12.60
2007,04,28,12,29,12.60
2007,04,28,12,30,12.60
2007,04,28,12,31,12.60
2007,04,28,12,32,12.50
2007,04,28,12,33,12.50
2007,04,28,12,34,12.40
2007,04,28,12,35,12.40
2007,04,28,12,36,12.40
2007,04,28,12,37,12.30
2007,04,28,12,38,12.30
2007,04,28,12,39,12.30
2007,04,28,12,40,12.20
2007,04,28,12,41,12.20
2007,04,28,12,42,12.30
2007,04,28,12,43,12.40
2007,04,28,12,44,12.50
2007,04,28,12,45,12.50
2007,04,28,12,46,12.60
2007,04,28,12,47,12.50
2007,04,28,12,48,12.40
2007,04,28,12,49,12.40
2007,04,28,12,50,12.30
2007,04,28,12,51,12.40
2007,04,28,12,52,12.40
2007,04,28,12,53,12.50
2007,04,28,12,54,12.60
2007,04,28,12,55,12.60
2007,04,28,12,56,12.60
2007,04,28,12,57,12.40
2007,04,28,12,58,12.30
2007,04,28,12,59,12.30
2007,04,28,13,00,12.30
2007,04,28,13,01,12.30
2007,04,28,13,02,12.30
2007,04,28,13,03,12.20
2007,04,28,13,04,12.10
2007,04,28,13,05,12.00
2007,04,28,13,06,12.00
2007,04,28,13,07,12.00
2007,04,28,13,08,12.00
2007,04,28,13,09,11.90
2007,04,28,13,10,11.90
2007,04,28,13,11,11.90
2007,04,28,13,12,11.90
2007,04,28,13,13,11.90
2007,04,28,13,14,11.90
2007,04,28,13,15,11.90
2007,04,28,13,16,11.90
2007,04,28,13,17,11.90
2007,04,28,13,18,12.00
2007,04,28,13,19,12.20
2007,04,28,13,20,12.40
2007,04,28,13,21,12.50
2007,04,28,13,22,12.50
2007,04,28,13,23,12.60
2007,04,28,13,24,12.50
2007,04,28,13,25,12.50
2007,04,28,13,26,12.60
2007,04,28,13,27,12.50
2007,04,28,13,28,12.40
2007,04,28,13,29,12.40
2007,04,28,13,30,12.30
2007,04,28,13,31,12.20
2007,04,28,13,32,12.20
2007,04,28,13,33,12.20
2007,04,28,13,34,12.20
2007,04,28,13,35,12.30
2007,04,28,13,36,12.40
2007,04,28,13,37,12.30
2007,04,28,13,38,12.30
2007,04,28,13,39,12.20
2007,04,28,13,40,12.10
2007,04,28,13,41,12.10
2007,04,28,13,42,12.10
2007,04,28,13,43,12.10
2007,04,28,13,44,12.20
2007,04,28,13,45,12.30
2007,04,28,13,46,12.30
2007,04,28,13,47,12.30
2007,04,28,13,48,12.30
2007,04,28,13,49,12.40
2007,04,28,13,50,12.30
2007,04,28,13,51,12.10
2007,04,28,13,52,12.00
2007,04,28,13,53,12.00
2007,04,28,13,54,12.00
2007,04,28,13,55,11.90
2007,04,28,13,56,11.80
2007,04,28,13,57,11.90
2007,04,28,13,58,11.90
2007,04,28,13,59,12.00
2007,04,28,14,00,12.10
2007,04,28,14,01,12.20
2007,04,28,14,02,12.30
2007,04,28,14,03,12.40
2007,04,28,14,04,12.40
2007,04,28,14,05,12.30
2007,04,28,14,06,12.30
2007,04,28,14,07,12.20
2007,04,28,14,08,12.20
2007,04,28,14,09,12.40
2007,04,28,14,10,12.50
2007,04,28,14,11,12.60
2007,04,28,14,12,12.70
2007,04,28,14,13,12.80
2007,04,28,14,14,12.80
2007,04,28,14,15,12.80
2007,04,28,14,16,12.80
2007,04,28,14,17,12.70
2007,04,28,14,18,12.50
2007,04,28,14,19,12.30
2007,04,28,14,20,12.30
2007,04,28,14,21,12.30
2007,04,28,14,22,12.40
2007,04,28,14,23,12.30
2007,04,28,14,24,12.20
2007,04,28,14,25,12.20
2007,04,28,14,26,12.10
2007,04,28,14,27,12.00
2007,04,28,14,28,12.00
2007,04,28,14,29,12.00
2007,04,28,14,30,12.10
2007,04,28,14,31,12.10
2007,04,28,14,32,12.10
2007,04,28,14,33,12.20
2007,04,28,14,34,12.30
2007,04,28,14,35,12.30
2007,04,28,14,36,12.40
2007,04,28,14,37,12.40
2007,04,28,14,38,12.40
2007,04,28,14,39,12.40
2007,04,28,14,40,12.40
2007,04,28,14,41,12.40
2007,04,28,14,42,12.40
2007,04,28,14,43,12.30
2007,04,28,14,44,12.30
2007,04,28,14,45,12.20
2007,04,28,14,46,12.10
2007,04,28,14,47,12.20
2007,04,28,14,48,12.30
2007,04,28,14,49,12.30
2007,04,28,14,50,12.40
2007,04,28,14,51,12.30
2007,04,28,14,52,12.30
2007,04,28,14,53,12.20
2007,04,28,14,54,12.30
2007,04,28,14,55,12.40
2007,04,28,14,56,12.40
2007,04,28,14,57,12.40
2007,04,28,14,58,12.30
2007,04,28,14,59,12.40
2007,04,28,15,00,12.50
2007,04,28,15,01,12.50
2007,04,28,15,02,12.60
2007,04,28,15,03,12.70
2007,04,28,15,04,12.80
2007,04,28,15,05,13.00
2007,04,28,15,06,13.00
2007,04,28,15,07,13.10
2007,04,28,15,08,13.20
2007,04,28,15,09,13.20
2007,04,28,15,10,13.20
2007,04,28,15,11,13.20
2007,04,28,15,12,13.20
2007,04,28,15,13,13.20
2007,04,28,15,14,13.20
2007,04,28,15,15,13.30
2007,04,28,15,16,13.40
2007,04,28,15,17,13.40
2007,04,28,15,18,13.50
2007,04,28,15,19,13.50
2007,04,28,15,20,13.60
2007,04,28,15,21,13.50
2007,04,28,15,22,13.40
2007,04,28,15,23,13.30
2007,04,28,15,24,13.20
2007,04,28,15,25,13.00
2007,04,28,15,26,12.90
2007,04,28,15,27,12.80
2007,04,28,15,28,12.90
2007,04,28,15,29,12.80
2007,04,28,15,30,12.80
2007,04,28,15,31,12.70
2007,04,28,15,32,12.60
2007,04,28,15,33,12.60
2007,04,28,15,34,12.50
2007,04,28,15,35,12.50
2007,04,28,15,36,12.40
2007,04,28,15,37,12.30
2007,04,28,15,38,12.30
2007,04,28,15,39,12.20
2007,04,28,15,40,12.10
2007,04,28,15,41,12.10
2007,04,28,15,42,12.20
2007,04,28,15,43,12.20
2007,04,28,15,44,12.20
2007,04,28,15,45,12.20
2007,04,28,15,46,12.10
2007,04,28,15,47,12.10
2007,04,28,15,48,12.00
2007,04,28,15,49,12.00
2007,04,28,15,50,12.00
2007,04,28,15,51,12.00
2007,04,28,15,52,12.10
2007,04,28,15,53,12.20
2007,04,28,15,54,12.30
2007,04,28,15,55,12.30
2007,04,28,15,56,12.40
2007,04,28,15,57,12.40
2007,04,28,15,58,12.40
2007,04,28,15,59,12.40
2007,04,28,16,00,12.50
2007,04,28,16,01,12.70
2007,04,28,16,02,12.70
2007,04,28,16,03,12.70
2007,04,28,16,04,12.60
2007,04,28,16,05,12.50
2007,04,28,16,06,12.40
2007,04,28,16,07,12.50
2007,04,28,16,08,12.50
2007,04,28,16,09,12.40
2007,04,28,16,10,12.40
2007,04,28,16,11,12.40
2007,04,28,16,12,12.40
2007,04,28,16,13,12.30
2007,04,28,16,14,12.40
2007,04,28,16,15,12.40
2007,04,28,16,16,12.40
2007,04,28,16,17,12.40
2007,04,28,16,18,12.40
2007,04,28,16,19,12.40
2007,04,28,16,20,12.40
2007,04,28,16,21,12.40
2007,04,28,16,22,12.40
2007,04,28,16,23,12.40
2007,04,28,16,24,12.40
2007,04,28,16,25,12.40
2007,04,28,16,26,12.40
2007,04,28,16,27,12.50
2007,04,28,16,28,12.50
2007,04,28,16,29,12.50
2007,04,28,16,30,12.60
2007,04,28,16,31,12.50
2007,04,28,16,32,12.40
2007,04,28,16,33,12.40
2007,04,28,16,34,12.40
2007,04,28,16,35,12.40
2007,04,28,16,36,12.30
2007,04,28,16,37,12.30
2007,04,28,16,38,12.30
2007,04,28,16,39,12.30
2007,04,28,16,40,12.40
2007,04,28,16,41,12.50
2007,04,28,16,42,12.50
2007,04,28,16,43,12.50
2007,04,28,16,44,12.50
2007,04,28,16,45,12.40
2007,04,28,16,46,12.30
2007,04,28,16,47,12.20
2007,04,28,16,48,12.10
2007,04,28,16,49,12.20
2007,04,28,16,50,12.20
2007,04,28,16,51,12.20
2007,04,28,16,52,12.10
2007,04,28,16,53,12.10
2007,04,28,16,54,12.00
2007,04,28,16,55,12.00
2007,04,28,16,56,12.00
2007,04,28,16,57,11.90
2007,04,28,16,58,11.90
2007,04,28,16,59,11.90
2007,04,28,17,00,11.90
2007,04,28,17,01,12.00
2007,04,28,17,02,12.00
2007,04,28,17,03,12.10
2007,04,28,17,04,12.20
2007,04,28,17,05,12.20
2007,04,28,17,06,12.30
2007,04,28,17,07,12.30
2007,04,28,17,08,12.30
2007,04,28,17,09,12.30
2007,04,28,17,10,12.30
2007,04,28,17,11,12.20
2007,04,28,17,12,12.20
2007,04,28,17,13,12.10
2007,04,28,17,14,12.20
2007,04,28,17,15,12.20
2007,04,28,17,16,12.20
2007,04,28,17,17,12.20
2007,04,28,17,18,12.20
2007,04,28,17,19,12.20
2007,04,28,17,20,12.10
2007,04,28,17,21,12.10
2007,04,28,17,22,12.20
2007,04,28,17,23,12.20
2007,04,28,17,24,12.20
2007,04,28,17,25,12.30
2007,04,28,17,26,12.40
2007,04,28,17,27,12.40
2007,04,28,17,28,12.40
2007,04,28,17,29,12.30
2007,04,28,17,30,12.20
2007,04,28,17,31,12.10
2007,04,28,17,32,12.00
2007,04,28,17,33,11.90
2007,04,28,17,34,11.90
2007,04,28,17,35,11.90
2007,04,28,17,36,11.90
2007,04,28,17,37,11.90
2007,04,28,17,38,11.90
2007,04,28,17,39,12.00
2007,04,28,17,40,12.00
2007,04,28,17,41,12.00
2007,04,28,17,42,12.00